User: anonymous   Login
Location: Unspecified
(0.0000°N, 0.0000°E)
Time: 10:33:33
(UTC+00:00)
Language:

SARAL - Orbit

View from above orbital plane
View from above orbital plane
View from above satellite
View from above satellite

Ground track
Ground track

The orbit data is extracted from the following two-line orbital elements,

1 39086U 13009A   20220.18311527 -.00000023  00000-0  77219-5 0  9990
2 39086  98.5444  44.9707 0002102  96.3900 263.7523 14.32030603389263
Epoch (UTC): 07 August 2020 04:23:41
Eccentricity: 0.0002102
inclination: 98.5444°
perigee height: 783 km
apogee height: 786 km
right ascension of ascending node: 44.9707°
argument of perigee: 96.3900°
revolutions per day: 14.32030603
mean anomaly at epoch: 263.7523°
orbit number at epoch: 38926

The dashed part of the orbit path shows where the satellite is in the earth's shadow,  

DLR